This is the latest recevied weather packets stored in our database for station/object KC0CAU. If no packets are shown the sender has not sent any weather packets the latest 10 day(s).
| Time | Temp. | Humidity | Pressure | Rain* | Wind** | Luminosity | Snow |
|---|---|---|---|---|---|---|---|
| 1777500047 | 10.56° C | 43% | 1021.3 hPa | 0 mm | - | - | - |
| 1777499150 | 10.56° C | 44% | 1021.4 hPa | 0 mm | - | - | - |
| 1777498248 | 10.56° C | 44% | 1021.2 hPa | 0 mm | - | - | - |
| 1777497354 | 11.11° C | 44% | 1021.3 hPa | 0 mm | - | - | - |
| 1777496447 | 11.67° C | 43% | 1021.1 hPa | 0 mm | - | - | - |
| 1777495545 | 11.11° C | 43% | 1021.2 hPa | 0 mm | - | - | - |
| 1777494649 | 11.11° C | 43% | 1021 hPa | 0 mm | - | - | - |
| 1777493741 | 11.11° C | 47% | 1021.1 hPa | 0 mm | - | - | - |
| 1777492840 | 10.56° C | 46% | 1021 hPa | 0 mm | - | - | - |
| 1777491939 | 10.56° C | 47% | 1021.1 hPa | 0 mm | - | - | - |
| 1777491039 | 11.11° C | 47% | 1021.1 hPa | 0 mm | - | - | - |
| 1777490137 | 11.11° C | 47% | 1021.1 hPa | 0 mm | - | - | - |
| 1777489237 | 11.11° C | 47% | 1021.1 hPa | 0 mm | - | - | - |
| 1777488335 | 11.11° C | 48% | 1021 hPa | 0 mm | - | - | - |
| 1777487435 | 11.11° C | 50% | 1020.9 hPa | 0 mm | - | - | - |
| 1777486535 | 11.11° C | 47% | 1021 hPa | 0 mm | - | - | - |
| 1777485634 | 10.56° C | 47% | 1021 hPa | 0 mm | - | - | - |
| 1777484742 | 10.56° C | 48% | 1021.1 hPa | 0 mm | - | - | - |
| 1777483837 | 11.11° C | 49% | 1020.9 hPa | 0 mm | - | - | - |
| 1777482932 | 11.11° C | 49% | 1020.9 hPa | 0 mm | - | - | - |
| 1777482038 | 10.56° C | 46% | 1021 hPa | 0 mm | - | - | - |
| 1777481133 | 10.56° C | 48% | 1021 hPa | 0 mm | - | - | - |
| 1777480231 | 10° C | 51% | 1021.1 hPa | 0 mm | - | - | - |
| 1777479323 | 9.44° C | 50% | 1021.1 hPa | 0 mm | - | - | - |
| 1777478423 | 8.89° C | 54% | 1021.2 hPa | 0 mm | - | - | - |
* Rain latest hour (hover to see other rain measurements)
** Current wind speed in m/s (hover to see current wind gust speed)